Kezdőlap
METAR-TAF:

METAR-TAF

Repülőterek :

Stevens Point Municipal Airport

Stevens Point, Wisconsin, Amerikai Egyesült Államok

földrajzi szélesség: 44-32-42N, földrajzi hosszúság: 089-31-49W, magasság: 338 m

Jelenlegi meteorológiai megfigyelések

A jelentés 17 perccel ezelõtt készült, 12:55 UTC
Keleti szél 3 kt
Hőmérséklet -6°C
Páratartalom 73%
Légköri nyomás 1030 hPa
Látótávolság: 16.1 km
Borult 2000 lábon

METAR: KSTE 081255Z AUTO 08003KT 10SM OVC020 M06/M10 A3041 RMK AO2 T10581101

Idő: 07:12 (13:12 UTC)


TAF: hiányzik

Meteorológiai megfigyelések és előrejelzések több, mint 4000 repülőtéren (METAR és TAF jelentéseket).

A térképen piros és sárga pontok jelzik az elérhető meteorológiai állomásokat.

Mozgassa az egeret a pont fölött, hogy megjelenjen az állomás neve.

Azután kattintson az időjárási megfigyelések és előrejelzések megtekintéséhez.

A térkép megváltoztatása: kattintson a fekete keresztel jelölt zöld gombra ráközelítéshez, a vonallal jelölt zöld gombra távolításhoz, vagy a zöld nyilakra a szomszédos térképek eléréséhez.


METAR-TAF: